Date,TemperatureHighF,TemperatureAvgF,TemperatureLowF,DewpointHighF,DewpointAvgF,DewpointLowF,HumidityHigh,HumidityAvg,HumidityLow,PressureMaxIn,PressureMinIn,WindSpeedMaxMPH,WindSpeedAvgMPH,GustSpeedMaxMPH,PrecipitationSumIn
2013-3-1,65.9,62.7,59.1,57.0,50.6,46.0,82,65,56,30.00,29.91,11,2,19,0.01
2013-3-2,65.1,58.1,53.5,46.0,41.1,35.0,66,54,40,30.05,29.95,11,3,25,0.00
2013-3-3,62.6,55.5,50.7,45.0,41.4,39.0,77,60,43,30.14,29.97,12,4,23,0.00
2013-3-4,63.4,54.5,44.2,43.0,37.1,28.0,72,54,28,30.21,30.12,15,2,22,0.00
2013-3-5,71.5,63.6,52.4,56.0,51.5,42.0,85,66,53,30.18,30.09,9,1,17,0.00
2013-3-6,77.6,66.9,54.0,64.0,51.1,29.0,88,60,25,30.10,29.95,14,4,23,0.00
2013-3-7,67.8,58.5,48.1,54.0,42.1,35.0,82,56,34,30.18,30.07,13,2,19,0.00
2013-3-8,72.2,63.9,54.9,54.0,50.1,42.0,89,63,34,30.20,30.10,9,2,14,0.00
2013-3-9,72.2,65.3,55.6,56.0,52.5,49.0,85,64,54,30.19,30.11,13,2,22,0.00
2013-3-10,73.1,69.9,67.0,60.0,54.0,50.0,67,57,52,30.16,30.07,20,6,23,0.00
2013-3-11,75.0,72.2,69.7,61.0,59.1,56.0,69,64,56,30.11,29.96,16,5,22,0.00
2013-3-12,79.5,74.6,71.5,68.0,64.8,60.0,79,71,64,30.01,29.93,14,3,22,0.00
2013-3-13,74.8,67.2,57.7,65.0,54.9,46.0,89,67,40,30.13,29.98,13,3,19,0.00
2013-3-14,69.3,61.8,55.6,52.0,44.7,30.0,81,56,23,30.20,30.10,17,5,22,0.00
2013-3-15,69.5,62.6,54.4,52.0,47.6,41.0,75,59,46,30.25,30.15,11,3,22,0.00
2013-3-16,71.7,66.4,57.4,55.0,52.5,50.0,85,62,50,30.19,30.10,9,1,19,0.00
2013-3-17,74.5,68.5,60.0,60.0,56.9,55.0,85,68,54,30.16,30.04,11,2,18,0.00
2013-3-18,76.7,72.8,68.7,70.0,65.0,60.0,92,77,68,30.09,29.98,14,2,21,0.07
2013-3-19,79.1,73.0,69.5,71.0,67.5,63.0,95,84,59,30.02,29.86,11,1,18,0.03
2013-3-20,79.5,72.8,65.7,70.0,64.7,56.0,95,77,50,29.98,29.80,14,2,24,0.00
2013-3-21,73.4,67.6,63.4,61.0,54.0,43.0,90,64,37,29.95,29.84,9,2,15,0.00
2013-3-22,74.8,70.3,61.5,70.0,60.5,53.0,89,72,56,30.01,29.90,18,2,18,0.00
2013-3-23,84.2,77.8,72.9,74.0,71.2,69.0,95,81,61,30.00,29.82,12,2,22,0.01
2013-3-24,88.7,80.6,75.0,74.0,71.3,68.0,94,75,52,29.89,29.70,25,6,34,0.00
2013-3-25,77.8,74.7,66.0,73.0,58.5,36.0,92,61,28,29.99,29.75,14,5,18,0.06
2013-3-26,65.9,60.9,53.1,44.0,35.2,28.0,61,39,26,30.21,29.99,16,6,26,0.00
2013-3-27,67.0,56.5,47.0,46.0,39.8,34.0,68,55,35,30.24,30.16,11,3,18,0.00
2013-3-28,69.0,61.9,53.2,48.0,43.1,35.0,68,52,34,30.26,30.17,14,3,18,0.00
2013-3-29,71.7,65.5,58.6,52.0,47.9,40.0,64,54,45,30.29,30.21,17,4,23,0.00
2013-3-30,72.6,68.4,64.4,54.0,51.1,46.0,63,54,40,30.27,30.17,13,3,21,0.00
2013-3-31,77.8,72.8,68.2,66.0,60.9,53.0,79,67,57,30.20,30.06,14,3,21,0.00